TimeMST,TemperatureF,Dew PointF,Humidity,Sea Level PressureIn,VisibilityMPH,Wind Direction,Wind SpeedMPH,Gust SpeedMPH,PrecipitationIn,Events,Conditions,WindDirDegrees,DateUTC
12:01 AM,30.2,28.4,93,29.88,2.5,Calm,Calm,-,N/A,,Overcast,0,2012-12-13 07:01:00
12:17 AM,30.2,30.2,100,29.88,1.2,Calm,Calm,-,N/A,,Overcast,0,2012-12-13 07:17:00
12:27 AM,28.4,28.4,100,29.88,1.0,SSE,4.6,-,N/A,,Mostly Cloudy,160,2012-12-13 07:27:00
12:32 AM,28.4,26.6,93,29.88,0.2,SSE,3.5,-,N/A,Fog,Light Freezing Fog,150,2012-12-13 07:32:00
12:42 AM,26.6,26.6,100,29.89,0.2,Calm,Calm,-,N/A,Fog,Light Freezing Fog,0,2012-12-13 07:42:00
12:53 AM,27.0,25.0,92,29.98,0.2,East,3.5,-,N/A,Fog,Light Freezing Fog,100,2012-12-13 07:53:00
1:43 AM,26.6,24.8,93,29.89,0.5,NNW,3.5,-,N/A,Fog,Light Freezing Fog,330,2012-12-13 08:43:00
1:53 AM,27.0,26.1,96,29.97,1.0,NNW,3.5,-,N/A,,Overcast,330,2012-12-13 08:53:00
1:55 AM,26.6,24.8,93,29.89,1.5,NNW,3.5,-,N/A,,Overcast,330,2012-12-13 08:55:00
2:01 AM,26.6,26.6,100,29.89,3.0,NNW,4.6,-,N/A,,Overcast,330,2012-12-13 09:01:00
2:50 AM,24.8,23.0,93,29.91,1.2,South,3.5,-,N/A,,Overcast,170,2012-12-13 09:50:00
2:53 AM,25.0,23.0,92,30.00,0.8,Calm,Calm,-,N/A,,Overcast,0,2012-12-13 09:53:00
3:21 AM,26.6,24.8,93,29.92,0.2,Calm,Calm,-,N/A,Fog,Light Freezing Fog,0,2012-12-13 10:21:00
3:42 AM,26.6,26.6,100,29.92,1.0,Calm,Calm,-,N/A,,Overcast,0,2012-12-13 10:42:00
3:45 AM,26.6,26.6,100,29.92,2.0,NNE,3.5,-,N/A,,Overcast,30,2012-12-13 10:45:00
3:53 AM,27.0,26.1,96,30.01,5.0,Calm,Calm,-,N/A,,Overcast,0,2012-12-13 10:53:00
4:53 AM,26.6,24.8,93,29.92,10.0,Calm,Calm,-,N/A,,Overcast,0,2012-12-13 11:53:00
5:53 AM,27.0,25.0,92,30.03,10.0,ESE,3.5,-,N/A,,Overcast,120,2012-12-13 12:53:00
6:53 AM,27.0,26.1,96,30.04,10.0,Calm,Calm,-,N/A,,Overcast,0,2012-12-13 13:53:00
7:53 AM,27.0,25.0,92,30.04,10.0,SSW,3.5,-,N/A,,Overcast,200,2012-12-13 14:53:00
8:53 AM,28.0,26.1,92,30.05,10.0,Calm,Calm,-,N/A,,Overcast,0,2012-12-13 15:53:00
9:53 AM,26.1,24.1,92,30.06,10.0,ESE,4.6,-,N/A,,Mostly Cloudy,110,2012-12-13 16:53:00
10:53 AM,28.9,26.1,89,30.05,10.0,ESE,8.1,-,N/A,,Overcast,110,2012-12-13 17:53:00
11:53 AM,30.0,25.0,82,30.04,10.0,ESE,5.8,-,N/A,,Mostly Cloudy,120,2012-12-13 18:53:00
12:53 PM,32.0,25.0,75,30.02,10.0,East,5.8,-,N/A,,Mostly Cloudy,100,2012-12-13 19:53:00
1:53 PM,35.1,24.1,64,29.99,10.0,Calm,Calm,-,N/A,,Overcast,0,2012-12-13 20:53:00
2:53 PM,34.0,24.1,67,29.97,10.0,West,3.5,-,N/A,,Overcast,260,2012-12-13 21:53:00
5:53 PM,30.2,21.2,69,29.87,10.0,North,3.5,-,N/A,,Mostly Cloudy,360,2012-12-14 00:53:00
6:53 PM,23.0,18.0,81,29.98,10.0,East,3.5,-,N/A,,Partly Cloudy,90,2012-12-14 01:53:00
7:53 PM,26.1,19.9,78,29.96,10.0,ESE,5.8,-,N/A,,Clear,120,2012-12-14 02:53:00
8:53 PM,23.0,18.0,81,29.97,10.0,ESE,6.9,-,N/A,,Clear,120,2012-12-14 03:53:00
9:53 PM,21.9,17.1,82,29.97,10.0,ESE,4.6,-,N/A,,Clear,120,2012-12-14 04:53:00
10:53 PM,21.0,17.1,85,29.97,10.0,ESE,9.2,-,N/A,,Clear,120,2012-12-14 05:53:00
11:53 PM,19.0,14.0,81,29.96,10.0,South,3.5,-,N/A,,Clear,190,2012-12-14 06:53:00